DW4509 Weather Reports


Display with metric or nautical units.
time (UTC)temp
F
wind
direction
speed
MPH
gust
MPH
rain 1hr
in
rain 24hr
in
rain mn
in
humidity
%
barometer
mb
20260906221327 60 247 0.0 0.0 0.00 0.00 0.00 84 1014.4
20260906220346 61 310 0.0 0.0 0.00 0.00 0.00 85 1014.4
20260906214240 61 310 0.0 0.0 0.00 0.00 0.00 85 1014.5
20260906213259 61 310 0.0 0.0 0.00 0.00 0.00 84 1014.6
20260906212249 61 310 0.0 0.0 0.00 0.00 0.00 84 1014.6
20260906211313 61 310 0.0 0.0 0.00 0.00 0.00 84 1014.6
20260906205115 62 310 0.0 0.0 0.00 0.00 0.00 83 1014.7
20260906204055 62 310 0.0 0.0 0.00 0.00 0.00 82 1014.8
20260906203034 63 313 0.0 0.0 0.00 0.00 0.00 82 1014.8
20260906202014 63 313 0.0 0.0 0.00 0.00 0.00 81 1014.8
20260906200941 63 313 0.0 0.0 0.00 0.00 0.00 81 1014.9
20260906195917 63 313 0.0 0.0 0.00 0.00 0.00 80 1014.9
20260906194919 64 313 0.0 0.0 0.00 0.00 0.00 80 1015.0
20260906192743 64 313 0.0 0.0 0.00 0.00 0.00 79 1015.2
20260906191720 64 313 0.0 0.0 0.00 0.00 0.00 78 1015.4
20260906190648 65 314 0.0 0.0 0.00 0.00 0.00 79 1015.4
20260906185653 65 313 0.0 0.0 0.00 0.00 0.00 78 1015.5
20260906184636 65 313 0.0 0.0 0.00 0.00 0.00 78 1015.4
20260906183627 66 313 0.0 0.0 0.00 0.00 0.00 78 1015.5
20260906182647 67 313 0.0 0.0 0.00 0.00 0.00 77 1015.5
20260906181621 67 313 0.0 0.0 0.00 0.00 0.00 75 1015.6
20260906180622 67 313 0.0 0.0 0.00 0.00 0.00 76 1015.6
20260906175634 67 313 0.0 0.0 0.00 0.00 0.00 75 1015.5
20260906174644 67 313 0.0 0.0 0.00 0.00 0.00 74 1015.6
20260906172509 69 313 0.0 0.0 0.00 0.00 0.00 72 1015.7
20260906171516 68 313 0.0 0.0 0.00 0.00 0.00 71 1015.9
20260906170537 69 313 0.0 0.0 0.00 0.00 0.00 72 1015.9
20260906165516 69 313 0.0 0.0 0.00 0.00 0.00 71 1016.0
20260906164502 70 313 0.0 0.0 0.00 0.00 0.00 70 1016.0
20260906163445 70 313 0.0 0.0 0.00 0.00 0.00 68 1016.2
20260906162501 71 314 0.0 0.0 0.00 0.00 0.00 68 1016.5
20260906161514 71 314 0.0 0.0 0.00 0.00 0.00 66 1016.5
20260906160502 72 68 0.0 2.0 0.00 0.00 0.00 65 1016.8
20260906155523 72 22 0.0 2.0 0.00 0.00 0.00 64 1016.8
20260906154500 72 9 0.0 0.0 0.00 0.00 0.00 63 1017.0
20260906153506 72 11 0.0 0.0 0.00 0.00 0.00 63 1017.1
20260906152457 72 353 0.0 2.0 0.00 0.00 0.00 63 1017.5
20260906151422 72 27 0.0 2.0 0.00 0.00 0.00 62 1017.5
20260906150447 72 345 0.0 5.0 0.00 0.00 0.00 61 1017.8
20260906145446 72 122 0.0 3.0 0.00 0.00 0.00 60 1017.8
20260906144459 72 222 0.0 6.0 0.00 0.00 0.00 60 1017.8
20260906142312 72 32 1.0 9.0 0.00 0.00 0.00 56 1017.9
20260906141301 73 273 0.0 7.0 0.00 0.00 0.00 56 1018.2
20260906135130 72 238 0.0 6.0 0.00 0.00 0.00 58 1018.2
20260906134100 72 246 0.0 6.0 0.00 0.00 0.00 59 1018.3
20260906133114 72 37 0.0 1.0 0.00 0.00 0.00 60 1018.5
20260906130945 71 272 0.0 3.0 0.00 0.00 0.00 65 1018.8
20260906130007 69 18 0.0 1.0 0.00 0.00 0.00 64 1019.0
20260906125003 69 13 0.0 2.0 0.00 0.00 0.00 65 1019.1
20260906123958 68 299 0.0 6.0 0.00 0.00 0.00 69 1019.3
20260906122937 68 250 0.0 0.0 0.00 0.00 0.00 71 1019.4
20260906121934 68 89 0.0 0.0 0.00 0.00 0.00 70 1019.4
20260906120937 67 108 0.0 0.0 0.00 0.00 0.00 67 1019.6
20260906115950 67 58 0.0 4.0 0.00 0.00 0.00 67 1019.8
20260906114923 67 19 0.0 2.0 0.00 0.00 0.00 68 1020.0
20260906113900 67 164 0.0 2.0 0.00 0.00 0.00 69 1020.1
20260906112826 68 270 0.0 0.0 0.00 0.00 0.00 69 1020.1
20260906111802 68 37 0.0 3.0 0.00 0.00 0.00 69 1020.2
20260906110812 68 353 0.0 4.0 0.00 0.00 0.00 70 1020.2
20260906105738 67 51 0.0 4.0 0.00 0.00 0.00 70 1020.4
20260906104748 67 232 0.0 0.0 0.00 0.00 0.00 72 1020.3
20260906103748 66 155 0.0 2.0 0.00 0.00 0.00 73 1020.6
20260906102745 65 75 0.0 4.0 0.00 0.00 0.00 75 1020.8
20260906101737 63 121 0.0 0.0 0.00 0.00 0.00 76 1020.9
20260906100722 63 148 0.0 0.0 0.00 0.00 0.00 78 1020.9
20260906095650 62 327 0.0 0.0 0.00 0.00 0.00 78 1021.0
20260906093632 61 27 0.0 0.0 0.00 0.00 0.00 80 1021.2
20260906092603 61 31 0.0 0.0 0.00 0.00 0.00 80 1021.3
20260906091545 60 26 0.0 0.0 0.00 0.00 0.00 81 1021.3
20260906090511 60 6 0.0 0.0 0.00 0.00 0.00 82 1021.5
20260906084413 60 340 0.0 0.0 0.00 0.00 0.00 82 1021.6
20260906082241 60 304 0.0 0.0 0.00 0.00 0.00 80 1021.5
20260906081305 60 18 0.0 0.0 0.00 0.00 0.00 82 1021.5
20260906080314 60 18 0.0 0.0 0.00 0.00 0.00 82 1021.5
20260906075244 59 18 0.0 0.0 0.00 0.00 0.00 82 1021.6
20260906074236 59 69 0.0 0.0 0.00 0.00 0.00 84 1021.5
20260906072104 58 70 0.0 0.0 0.00 0.00 0.00 85 1021.6
20260906065919 59 74 0.0 0.0 0.00 0.00 0.00 86 1021.8
20260906064914 58 68 0.0 0.0 0.00 0.00 0.00 87 1021.7
20260906063911 58 69 0.0 0.0 0.00 0.00 0.00 88 1021.8
20260906062917 57 69 0.0 0.0 0.00 0.00 0.00 88 1021.9
20260906061853 56 69 0.0 0.0 0.00 0.00 0.00 90 1021.8
20260906060848 54 69 0.0 0.0 0.00 0.00 0.00 90 1021.9
20260906055825 53 69 0.0 0.0 0.00 0.00 0.00 90 1022.1
20260906053646 53 70 0.0 0.0 0.00 0.00 0.00 89 1022.2
20260906052632 53 70 0.0 0.0 0.00 0.00 0.00 89 1022.2
20260906051632 53 70 0.0 0.0 0.00 0.00 0.00 89 1022.2
20260906050651 53 70 0.0 0.0 0.00 0.00 0.00 90 1022.2
20260906045630 53 70 0.0 0.0 0.00 0.00 0.00 89 1022.3
20260906044618 53 70 0.0 0.0 0.00 0.00 0.00 89 1022.5
20260906043641 53 70 0.0 0.0 0.00 0.00 0.00 90 1022.5
20260906042701 53 70 0.0 0.0 0.00 0.00 0.00 90 1022.5
20260906041650 53 70 0.0 0.0 0.00 0.00 0.00 90 1022.5
20260906040709 53 72 0.0 0.0 0.00 0.00 0.00 90 1022.7
20260906035735 53 72 0.0 0.0 0.00 0.00 0.00 90 1022.8
20260906034754 52 73 0.0 0.0 0.00 0.00 0.00 90 1022.9
20260906033807 52 72 0.0 0.0 0.00 0.00 0.00 89 1022.9
20260906032828 52 73 0.0 0.0 0.00 0.00 0.00 89 1023.0
20260906031820 52 73 0.0 0.0 0.00 0.00 0.00 89 1023.1
20260906030754 52 73 0.0 0.0 0.00 0.00 0.00 89 1023.2
20260906023503 52 73 0.0 0.0 0.00 0.00 0.00 89 1023.5
20260906022440 52 74 0.0 0.0 0.00 0.00 0.00 89 1023.7
20260906021432 52 74 0.0 0.0 0.00 0.00 0.00 88 1023.8
20260906020421 52 75 0.0 0.0 0.00 0.00 0.00 88 1023.8
20260906015421 52 75 0.0 0.0 0.00 0.00 0.00 88 1024.0
20260906014410 52 75 0.0 0.0 0.00 0.00 0.00 88 1024.1
20260906013356 53 75 0.0 0.0 0.00 0.00 0.00 88 1024.1
20260906012409 53 75 0.0 0.0 0.00 0.00 0.00 87 1024.3
20260906011413 53 75 0.0 0.0 0.00 0.00 0.00 88 1024.5
20260906010347 53 75 0.0 0.0 0.00 0.00 0.00 87 1024.7
20260906005356 53 75 0.0 0.0 0.00 0.00 0.00 87 1024.8
20260906004322 53 75 0.0 0.0 0.00 0.00 0.00 87 1024.8
20260906003331 53 75 0.0 0.0 0.00 0.00 0.00 86 1024.9
20260906002312 54 75 0.0 0.0 0.00 0.00 0.00 86 1025.0
20260905234954 55 75 0.0 0.0 0.00 0.00 0.00 84 1025.2
20260905233935 55 75 0.0 0.0 0.00 0.00 0.00 84 1025.2
20260905232958 55 75 0.0 0.0 0.00 0.00 0.00 85 1025.3
20260905232002 55 75 0.0 0.0 0.00 0.01 0.00 84 1025.3
20260905231026 55 75 0.0 0.0 0.00 0.01 0.00 84 1025.3
20260905230003 55 75 0.0 0.0 0.00 0.01 0.01 84 1025.3
20260905224931 55 75 0.0 0.0 0.00 0.01 0.01 84 1025.3
20260905223916 55 75 0.0 0.0 0.00 0.01 0.01 83 1025.3
20260905222903 55 75 0.0 0.0 0.00 0.01 0.01 84 1025.2